Time,TemperatureF,DewpointF,PressureIn,WindDirection,WindDirectionDegrees,WindSpeedMPH,WindSpeedGustMPH,Humidity,HourlyPrecipIn,Conditions,Clouds,dailyrainin,SoftwareType,DateUTC
2013-07-09 00:33:00,71.0,71.0,30.04,SW,230,13.0,16.0,100,-99.99,,,-99.99,,2013-07-09 04:33:00,
2013-07-09 00:42:00,71.0,71.0,30.04,SW,230,13.0,16.0,100,-99.99,,,-99.99,,2013-07-09 04:42:00,
2013-07-09 00:50:00,72.0,72.0,30.03,SW,220,13.0,16.0,100,-99.99,,,-99.99,,2013-07-09 04:50:00,
2013-07-09 01:33:00,72.0,72.0,30.03,SW,220,13.0,16.0,100,-99.99,,,-99.99,,2013-07-09 05:33:00,
2013-07-09 01:42:00,72.0,72.0,30.03,SW,220,13.0,16.0,100,-99.99,,,-99.99,,2013-07-09 05:42:00,
2013-07-09 01:50:00,72.0,72.0,30.03,SSW,210,11.0,13.0,100,-99.99,,,-99.99,,2013-07-09 05:50:00,
2013-07-09 02:22:00,72.0,72.0,30.03,SSW,210,11.0,13.0,100,-99.99,,,-99.99,,2013-07-09 06:22:00,
2013-07-09 02:33:00,72.0,72.0,30.03,SSW,210,11.0,13.0,100,-99.99,,,-99.99,,2013-07-09 06:33:00,
2013-07-09 02:43:00,72.0,72.0,30.03,SSW,210,11.0,13.0,100,-99.99,,,-99.99,,2013-07-09 06:43:00,
2013-07-09 02:50:00,72.0,72.0,30.03,SW,220,16.0,18.0,100,-99.99,,,-99.99,,2013-07-09 06:50:00,
2013-07-09 03:22:00,72.0,72.0,30.03,SW,220,16.0,18.0,100,-99.99,,,-99.99,,2013-07-09 07:22:00,
2013-07-09 03:33:00,72.0,72.0,30.03,SW,220,16.0,18.0,100,-99.99,,,-99.99,,2013-07-09 07:33:00,
2013-07-09 03:42:00,72.0,72.0,30.03,SW,220,16.0,18.0,100,-99.99,,,-99.99,,2013-07-09 07:42:00,
2013-07-09 03:50:00,72.0,72.0,30.03,WSW,250,9.0,11.0,100,-99.99,,,-99.99,,2013-07-09 07:50:00,
2013-07-09 04:33:00,72.0,72.0,30.03,WSW,250,9.0,11.0,100,-99.99,,,-99.99,,2013-07-09 08:33:00,
2013-07-09 04:43:00,72.0,72.0,30.03,WSW,250,9.0,11.0,100,-99.99,,,-99.99,,2013-07-09 08:43:00,
2013-07-09 05:50:00,71.0,71.0,30.04,SSW,210,9.0,11.0,100,-99.99,,,-99.99,,2013-07-09 09:50:00,
2013-07-09 06:33:00,71.0,71.0,30.04,SSW,210,9.0,11.0,100,-99.99,,,-99.99,,2013-07-09 10:33:00,
2013-07-09 06:42:00,71.0,71.0,30.04,SSW,210,9.0,11.0,100,-99.99,,,-99.99,,2013-07-09 10:42:00,
2013-07-09 06:50:00,71.0,71.0,30.07,WSW,250,9.0,11.0,100,-99.99,,,-99.99,,2013-07-09 10:50:00,
2013-07-09 07:33:00,71.0,71.0,30.07,WSW,250,9.0,11.0,100,-99.99,,,-99.99,,2013-07-09 11:33:00,
2013-07-09 07:42:00,71.0,71.0,30.07,WSW,250,9.0,11.0,100,-99.99,,,-99.99,,2013-07-09 11:42:00,
2013-07-09 08:50:00,71.0,71.0,30.08,North,360,4.0,4.0,100,-99.99,,,-99.99,,2013-07-09 12:50:00,
2013-07-09 09:33:00,71.0,71.0,30.08,North,360,4.0,4.0,100,-99.99,,,-99.99,,2013-07-09 13:33:00,
2013-07-09 09:43:00,71.0,71.0,30.08,North,360,4.0,4.0,100,-99.99,,,-99.99,,2013-07-09 13:43:00,
2013-07-09 09:50:00,71.0,71.0,30.08,WNW,300,2.0,4.0,100,-99.99,,,-99.99,,2013-07-09 13:50:00,
2013-07-09 10:34:00,71.0,71.0,30.08,WNW,300,2.0,4.0,100,-99.99,,,-99.99,,2013-07-09 14:34:00,
2013-07-09 10:43:00,71.0,71.0,30.08,WNW,300,2.0,4.0,100,-99.99,,,-99.99,,2013-07-09 14:43:00,
2013-07-09 11:50:00,71.0,71.0,30.08,SW,230,4.0,4.0,100,-99.99,,,-99.99,,2013-07-09 15:50:00,
2013-07-09 12:33:00,71.0,71.0,30.08,SW,230,4.0,4.0,100,-99.99,,,-99.99,,2013-07-09 16:33:00,
2013-07-09 12:43:00,71.0,71.0,30.08,SW,230,4.0,4.0,100,-99.99,,,-99.99,,2013-07-09 16:43:00,
2013-07-09 12:50:00,71.0,71.0,30.08,West,280,7.0,7.0,100,-99.99,,,-99.99,,2013-07-09 16:50:00,
2013-07-09 13:35:00,71.0,71.0,30.08,West,280,7.0,7.0,100,-99.99,,,-99.99,,2013-07-09 17:35:00,
2013-07-09 13:45:00,71.0,71.0,30.08,West,280,7.0,7.0,100,-99.99,,,-99.99,,2013-07-09 17:45:00,
2013-07-09 13:50:00,71.0,71.0,30.08,SW,230,9.0,9.0,100,-99.99,,,-99.99,,2013-07-09 17:50:00,
2013-07-09 14:32:00,71.0,71.0,30.08,SW,230,9.0,9.0,100,-99.99,,,-99.99,,2013-07-09 18:32:00,
2013-07-09 14:42:00,71.0,71.0,30.08,SW,230,9.0,9.0,100,-99.99,,,-99.99,,2013-07-09 18:42:00,
2013-07-09 15:50:00,70.0,70.0,30.08,East,90,7.0,9.0,100,-99.99,,,-99.99,,2013-07-09 19:50:00,
2013-07-09 16:32:00,70.0,70.0,30.08,East,90,7.0,9.0,100,-99.99,,,-99.99,,2013-07-09 20:32:00,
2013-07-09 16:42:00,70.0,70.0,30.08,East,90,7.0,9.0,100,-99.99,,,-99.99,,2013-07-09 20:42:00,
2013-07-09 16:50:00,68.0,68.0,30.07,ENE,60,9.0,9.0,100,-99.99,,,-99.99,,2013-07-09 20:50:00,
2013-07-09 17:32:00,68.0,68.0,30.07,ENE,60,9.0,9.0,100,-99.99,,,-99.99,,2013-07-09 21:32:00,
2013-07-09 17:42:00,68.0,68.0,30.07,ENE,60,9.0,9.0,100,-99.99,,,-99.99,,2013-07-09 21:42:00,
2013-07-09 17:50:00,68.0,68.0,30.06,ENE,70,7.0,7.0,100,-99.99,,,-99.99,,2013-07-09 21:50:00,
2013-07-09 18:33:00,68.0,68.0,30.06,ENE,70,7.0,7.0,100,-99.99,,,-99.99,,2013-07-09 22:33:00,
2013-07-09 18:42:00,68.0,68.0,30.06,ENE,70,7.0,7.0,100,-99.99,,,-99.99,,2013-07-09 22:42:00,
2013-07-09 18:50:00,68.0,68.0,30.06,ESE,110,7.0,9.0,100,-99.99,,,-99.99,,2013-07-09 22:50:00,
2013-07-09 19:22:00,68.0,68.0,30.06,ESE,110,7.0,9.0,100,-99.99,,,-99.99,,2013-07-09 23:22:00,
2013-07-09 19:33:00,68.0,68.0,30.06,ESE,110,7.0,9.0,100,-99.99,,,-99.99,,2013-07-09 23:33:00,
2013-07-09 19:43:00,68.0,68.0,30.06,ESE,110,7.0,9.0,100,-99.99,,,-99.99,,2013-07-09 23:43:00,
2013-07-09 22:50:00,69.0,69.0,30.06,ESE,110,9.0,11.0,100,-99.99,,,-99.99,,2013-07-10 02:50:00,
2013-07-09 23:32:00,69.0,69.0,30.06,ESE,110,9.0,11.0,100,-99.99,,,-99.99,,2013-07-10 03:32:00,
2013-07-09 23:43:00,69.0,69.0,30.06,ESE,110,9.0,11.0,100,-99.99,,,-99.99,,2013-07-10 03:43:00,
2013-07-09 23:50:00,70.0,70.0,30.06,East,100,7.0,9.0,100,-99.99,,,-99.99,,2013-07-10 03:50:00,